Simultaneous Nadir Overpasses (SNOs) Predictions

Prediction of SNOs between GOES-16 and NOAA-20 Satellite Orbit:

Table of predicted SNOs for the next 14.0 days since TLE Epoch: 4/9/2022
Index Date Time (GOES-16) GOES-16 Lat,Lon NOAA-20 Lat,Lon Distance(km) Time Diff (sec)
1 04/10/2022 18:27:08 0.05, -75.21 -0.05, -75.75 61.06 80
2 04/11/2022 18:08:24 0.05, -75.21 0.94, -71.22 455.84 80
3 04/13/2022 06:32:52 -0.04, -75.22 0.26, -76.48 143.42 80
4 04/14/2022 06:11:28 -0.04, -75.23 -0.78, -71.96 373.66 80
5 04/15/2022 18:36:05 0.03, -75.24 -0.44, -77.25 229.35 80
6 04/16/2022 18:14:41 0.04, -75.25 0.61, -72.73 288.08 80
7 04/18/2022 06:39:09 -0.03, -75.27 0.59, -77.99 310.33 80
8 04/19/2022 06:17:46 -0.04, -75.28 -0.46, -73.47 207.01 80
9 04/20/2022 18:42:22 0.03, -75.29 -0.76, -78.76 395.93 80
10 04/21/2022 18:20:59 0.03, -75.30 0.29, -74.24 121.70 80
